Regional Weather Roundup
Issued by NWS

Home | Current Version | Previous Version | Graphics & Text | Print | Product List | Glossary On
Versions: 1 2 3 4 5 6 7 8 9 10 11 12 13 14 15 16 17 18 19 20 21 22 23 24 25 26 27
000
ASUS45 KSLC 282310
RWRUT

UTAH REGIONAL WEATHER ROUNDUP
NATIONAL WEATHER SERVICE SALT LAKE CITY UT
500 PM MDT SUN MAY 28 2017

UTZ001>011-023>025-290000-

NORTHERN UTAH

CITY           SKY/WX    TMP DP  RH WIND       PRES   REMARKS
BRIGHAM CITY   SUNNY     75  22  13 SW5       30.19F
HILL AFB       SUNNY     73  32  21 NW8       30.20F
LOGAN          SUNNY     75  37  25 N7        30.19F
OGDEN          SUNNY     75  30  19 NW9       30.18F
SALT LAKE CITY MOSUNNY   78  34  20 NW9       30.16F
TOOELE VALLEY  SUNNY     72  39  30 N9        30.19F
WENDOVER       SUNNY     76  27  16 E7        30.18F
WEST JORDAN    SUNNY     74  47  38 NW9       30.19F

$$

UTZ011>015-024>027-290000-

CENTRAL/NORTHEAST UTAH

CITY           SKY/WX    TMP DP  RH WIND       PRES   REMARKS
PROVO AIRPORT  SUNNY     76  28  17 VRB5      30.17F
MOAB/CANYONLAN SUNNY     80  15   8 VRB5      30.12F
DELTA          SUNNY     77  21  12 N3        30.17F
PRICE          MOSUNNY   74  25  16 S7        30.20F
ROOSEVELT      SUNNY     73  27  17 E6        30.22F
VERNAL         SUNNY     73  30  20 MISG      30.20F

$$

UTZ013>016-019>022-027-290000-

SOUTHERN UTAH

CITY           SKY/WX    TMP DP  RH WIND       PRES   REMARKS
BRYCE CANYON   MOSUNNY   68  21  16 S7        30.29F
CEDAR CITY     SUNNY     77  23  13 NW5       30.16F
MILFORD        SUNNY     80  12   7 VRB6G21   30.16F
ST GEORGE      CLEAR     90  24   9 NW10      29.98F
HANKSVILLE     SUNNY     79  19  11 S3        30.15F
BLANDING       SUNNY     73  21  14 SE3       30.25F

$$

REGIONAL REPORTS     COLORADO/ARIZONA

CITY           SKY/WX    TMP DP  RH WIND       PRES   REMARKS
CRAIG, CO      SUNNY     68  28  22 NE5       30.26F
GRAND JUNCTION SUNNY     77  10   7 W6        30.14F
RIFLE, CO      SUNNY     75  14  10 VRB5      30.17F
MONTROSE, CO   SUNNY     73  12   9 N8        30.20F
CORTEZ, CO     SUNNY     76  11   8 W8        30.19F
COLORADO CITY    N/A     86  27  11 E3        30.14F
PAGE, AZ       SUNNY     83  20   9 N8        30.10F
GRAND CANYON   MOSUNNY   73  21  14 VRB6      30.22F
KINGMAN, AZ    SUNNY     92  24   8 W9        29.98F
FLAGSTAFF, AZ  MOSUNNY   72  16  12 VRB5      30.21F

$$

REGIONAL REPORTS    NEVADA/IDAHO/WYOMING

CITY           SKY/WX    TMP DP  RH WIND       PRES   REMARKS
LAS VEGAS, NV  MOSUNNY   94   8   4 N8        29.93F
ELY, NY        SUNNY     74  21  13 VRB3      30.22F
ELKO, NV       SUNNY     79  24  13 E8        30.18F
POCATELLO, ID  MOSUNNY   74  37  26 NW7       30.22F
BURLEY, ID     SUNNY     76  35  22 NE5       30.18F
FORT BRIDGER,    N/A     68  28  21 N8        30.32F
EVANSTON, WY   MOSUNNY   65  31  28 MISG      30.30F
ROCK SPRINGS,  SUNNY     66  21  18 VRB5      30.28F
KEMMERER, WY     N/A     63  28  27 NW3       30.32F

$$




USA.gov is the U.S. government's official web portal to all federal, state and local government web resources and services.